Вернуться в каталог

STARLINK-34076

АктивенСвязьVLEO
NORAD 63915·PAYLOAD·🇺🇸 United States

Запущен May 10, 2025 с Cape Canaveral Space Force Station

Loading…

Ближайшие Пролёты (ближайшие 24 часа)

TLE

СвежийSource: CelesTrak SupGP

Эпоха: Sep 14, 2026, 22:39 UTC

1 63915C 25095AB  26257.94423611 -.00039233  00000+0 -14208-2 0  2572
2 63915  43.0000 187.3321 0001311 268.2706  56.7109 15.27603060    14

Отслеживайте STARLINK-34076 в реальном времени с AllMySat

Download on the App Store